ALK238 VCBI-VRMM

Flight info

Callsign ALK238
Flight time 0h 58m
Altitude 36000
Route LALUM DCT HOKEY HOKEY1A
Aircraft A20N/M-SDE2E3FGHIRWXY/LB1

Departure

Time 2026-04-27 12:49
Airport Bandaranaike International Colombo Airport (VCBI)

Arrival

Time 2026-04-27 13:47
Airport Velana International Airport (VRMM)
Time Latitude Longitude Altitude Speed Heading
2026-04-27 12:40 7.17652 79.88374 34 ft 0 kts 37°
2026-04-27 12:42 7.17646 79.88369 33 ft 4 kts 36°
2026-04-27 12:43 7.17623 79.88353 33 ft 4 kts 32°
2026-04-27 12:43 7.17600 79.88340 33 ft 4 kts 19°
2026-04-27 12:43 7.17575 79.88336 33 ft 4 kts 329°
2026-04-27 12:43 7.17569 79.88340 33 ft 0 kts 307°
2026-04-27 12:45 7.17577 79.88329 33 ft 4 kts 307°
2026-04-27 12:46 7.17600 79.88299 33 ft 7 kts 307°
2026-04-27 12:46 7.17620 79.88248 34 ft 8 kts 258°
2026-04-27 12:46 7.17573 79.88201 33 ft 12 kts 215°
2026-04-27 12:46 7.17498 79.88147 33 ft 15 kts 215°
2026-04-27 12:47 7.17445 79.88110 33 ft 10 kts 216°
2026-04-27 12:47 7.17416 79.88039 33 ft 8 kts 299°
2026-04-27 12:47 7.17441 79.88016 33 ft 7 kts 316°
2026-04-27 12:47 7.17460 79.87996 34 ft 4 kts 314°
2026-04-27 12:48 7.17485 79.87969 35 ft 6 kts 311°
2026-04-27 12:48 7.17536 79.87953 35 ft 11 kts 17°
2026-04-27 12:48 7.17603 79.87997 35 ft 28 kts 36°
2026-04-27 12:48 7.17955 79.88259 35 ft 97 kts 37°
2026-04-27 12:49 7.18647 79.88792 35 ft 150 kts 37°
2026-04-27 12:49 7.19526 79.89473 471 ft 157 kts 39°
2026-04-27 12:49 7.20394 79.90129 1094 ft 156 kts 37°
2026-04-27 12:49 7.21394 79.90612 1564 ft 169 kts
2026-04-27 12:50 7.22624 79.90372 1833 ft 194 kts 327°
2026-04-27 12:50 7.23701 79.88902 2372 ft 212 kts 281°
2026-04-27 12:50 7.23746 79.87874 2661 ft 225 kts 259°
2026-04-27 12:50 7.23100 79.86382 3138 ft 246 kts 233°
2026-04-27 12:51 7.22049 79.84904 3609 ft 272 kts 235°
2026-04-27 12:51 7.20882 79.83370 4425 ft 277 kts 228°
2026-04-27 12:51 7.19591 79.81945 5328 ft 282 kts 226°
2026-04-27 12:51 7.18250 79.80489 6235 ft 285 kts 227°
2026-04-27 12:52 7.16909 79.78992 7024 ft 292 kts 228°
2026-04-27 12:52 7.15560 79.77441 7849 ft 295 kts 229°
2026-04-27 12:52 7.14211 79.75861 8679 ft 299 kts 229°
2026-04-27 12:52 7.12853 79.74257 9527 ft 303 kts 229°
2026-04-27 12:53 7.10009 79.70889 10434 ft 337 kts 229°
2026-04-27 12:53 7.08436 79.69027 10727 ft 356 kts 229°
2026-04-27 12:53 7.06839 79.67139 11374 ft 361 kts 229°
2026-04-27 12:54 7.05199 79.65198 12100 ft 366 kts 229°
2026-04-27 12:54 7.03541 79.63236 12793 ft 370 kts 229°
2026-04-27 12:54 7.01862 79.61251 13475 ft 375 kts 229°
2026-04-27 12:54 6.99628 79.58611 14367 ft 379 kts 229°
2026-04-27 12:55 6.96198 79.54554 15436 ft 386 kts 229°
2026-04-27 12:55 6.92728 79.50451 16646 ft 392 kts 228°
2026-04-27 12:55 6.89118 79.46185 17829 ft 399 kts 228°
2026-04-27 12:55 6.85534 79.41952 18872 ft 405 kts 228°
2026-04-27 12:56 6.81848 79.37601 19842 ft 412 kts 228°
2026-04-27 12:56 6.78110 79.33188 20811 ft 418 kts 228°
2026-04-27 12:56 6.74300 79.28692 21768 ft 425 kts 229°
2026-04-27 12:56 6.70438 79.24136 22745 ft 430 kts 229°
2026-04-27 12:57 6.66531 79.19528 23615 ft 437 kts 229°
2026-04-27 12:57 6.62574 79.14861 24442 ft 440 kts 229°
2026-04-27 12:57 6.58585 79.10158 25237 ft 444 kts 229°
2026-04-27 12:57 6.54544 79.05395 25992 ft 449 kts 229°
2026-04-27 12:58 6.50539 79.00675 26721 ft 452 kts 229°
2026-04-27 12:58 6.46433 78.95839 27418 ft 456 kts 228°
2026-04-27 12:58 6.42308 78.90982 28084 ft 460 kts 228°
2026-04-27 12:58 6.38141 78.86076 28721 ft 463 kts 228°
2026-04-27 12:59 6.33939 78.81131 29349 ft 467 kts 229°
2026-04-27 12:59 6.29735 78.76185 30064 ft 467 kts 229°
2026-04-27 12:59 6.25491 78.71192 30558 ft 471 kts 229°
2026-04-27 12:59 6.21210 78.66156 31125 ft 474 kts 229°
2026-04-27 13:00 6.16987 78.61191 31825 ft 472 kts 229°
2026-04-27 13:00 6.13261 78.55783 32494 ft 472 kts 241°
2026-04-27 13:00 6.10596 78.49763 33157 ft 471 kts 247°
2026-04-27 13:00 6.08067 78.43701 33795 ft 470 kts 246°
2026-04-27 13:01 6.05540 78.37662 34306 ft 469 kts 246°
2026-04-27 13:01 6.03015 78.31622 34773 ft 469 kts 246°
2026-04-27 13:01 6.00496 78.25596 35230 ft 468 kts 246°
2026-04-27 13:01 5.97972 78.19562 35699 ft 468 kts 246°
2026-04-27 13:02 5.95436 78.13500 35830 ft 475 kts 246°
2026-04-27 13:02 5.92907 78.07454 35829 ft 476 kts 246°
2026-04-27 13:02 5.88323 77.96507 35829 ft 476 kts 246°
2026-04-27 13:03 5.85749 77.90363 35829 ft 478 kts 246°
2026-04-27 13:03 5.83170 77.84210 35829 ft 478 kts 246°
2026-04-27 13:04 5.80608 77.78099 35829 ft 478 kts 246°
2026-04-27 13:04 5.78027 77.71945 35829 ft 478 kts 246°
2026-04-27 13:05 5.75449 77.65800 35829 ft 478 kts 246°
2026-04-27 13:05 5.72870 77.59654 35829 ft 478 kts 246°
2026-04-27 13:06 5.70288 77.53503 35829 ft 478 kts 246°
2026-04-27 13:06 5.67703 77.47350 35829 ft 478 kts 246°
2026-04-27 13:07 5.65134 77.41234 35831 ft 478 kts 246°
2026-04-27 13:07 5.62551 77.35087 35832 ft 478 kts 246°
2026-04-27 13:08 5.59944 77.28888 35832 ft 485 kts 246°
2026-04-27 13:08 5.57323 77.22655 35833 ft 484 kts 246°
2026-04-27 13:09 5.54717 77.16458 35832 ft 481 kts 245°
2026-04-27 13:09 5.52109 77.10262 35832 ft 482 kts 245°
2026-04-27 13:10 5.49517 77.04106 35832 ft 482 kts 245°
2026-04-27 13:10 5.46905 76.97902 35832 ft 482 kts 245°
2026-04-27 13:11 5.44297 76.91711 35832 ft 482 kts 245°
2026-04-27 13:11 5.41685 76.85513 35830 ft 482 kts 245°
2026-04-27 13:12 5.39085 76.79344 35832 ft 482 kts 245°
2026-04-27 13:12 5.36473 76.73149 35832 ft 482 kts 245°
2026-04-27 13:13 5.33858 76.66951 35832 ft 483 kts 245°
2026-04-27 13:13 5.31241 76.60749 35832 ft 483 kts 245°
2026-04-27 13:14 5.28621 76.54542 35831 ft 483 kts 245°
2026-04-27 13:14 5.26019 76.48379 35832 ft 484 kts 245°
2026-04-27 13:15 5.23395 76.42165 35831 ft 484 kts 245°
2026-04-27 13:15 5.20768 76.35948 35831 ft 484 kts 245°
2026-04-27 13:16 5.18144 76.29737 35831 ft 484 kts 245°
2026-04-27 13:16 5.15536 76.23568 35832 ft 483 kts 245°
2026-04-27 13:17 5.12910 76.17358 35831 ft 484 kts 245°
2026-04-27 13:17 5.10406 76.11102 35832 ft 485 kts 251°
2026-04-27 13:18 5.08431 76.04624 35835 ft 486 kts 251°
2026-04-27 13:18 5.06446 75.98153 35834 ft 485 kts 251°
2026-04-27 13:19 5.04472 75.91726 35834 ft 485 kts 251°
2026-04-27 13:19 5.02481 75.85248 35834 ft 485 kts 251°
2026-04-27 13:20 5.00493 75.78780 35834 ft 485 kts 251°
2026-04-27 13:20 4.98509 75.72325 35831 ft 485 kts 251°
2026-04-27 13:21 4.96470 75.65918 35832 ft 484 kts 246°
2026-04-27 13:21 4.93476 75.59915 35832 ft 481 kts 238°
2026-04-27 13:22 4.90134 75.54094 35831 ft 481 kts 238°
2026-04-27 13:22 4.86809 75.48275 35831 ft 481 kts 238°
2026-04-27 13:23 4.83479 75.42451 35833 ft 481 kts 238°
2026-04-27 13:23 4.80174 75.36675 35832 ft 481 kts 238°
2026-04-27 13:24 4.76840 75.30852 35832 ft 482 kts 238°
2026-04-27 13:24 4.73543 75.25095 35831 ft 482 kts 238°
2026-04-27 13:25 4.70259 75.19360 35835 ft 482 kts 238°
2026-04-27 13:25 4.66945 75.13575 35834 ft 482 kts 238°
2026-04-27 13:26 4.63611 75.07757 35835 ft 482 kts 238°
2026-04-27 13:26 4.60276 75.01936 35833 ft 481 kts 237°
2026-04-27 13:27 4.58608 74.99026 35700 ft 481 kts 237°
2026-04-27 13:27 4.56944 74.96123 35437 ft 481 kts 237°
2026-04-27 13:27 4.55273 74.93209 34968 ft 481 kts 237°
2026-04-27 13:27 4.53614 74.90314 34416 ft 478 kts 237°
2026-04-27 13:28 4.51953 74.87418 33672 ft 479 kts 237°
2026-04-27 13:28 4.50318 74.84568 32791 ft 480 kts 237°
2026-04-27 13:28 4.48647 74.81657 31869 ft 482 kts 238°
2026-04-27 13:28 4.46971 74.78738 30966 ft 484 kts 238°
2026-04-27 13:29 4.45286 74.75802 30003 ft 488 kts 238°
2026-04-27 13:29 4.43590 74.72849 28834 ft 491 kts 238°
2026-04-27 13:29 4.41879 74.69869 27620 ft 496 kts 239°
2026-04-27 13:29 4.40151 74.66862 26502 ft 500 kts 239°
2026-04-27 13:30 4.38444 74.63890 25790 ft 495 kts 239°
2026-04-27 13:30 4.36740 74.60923 25109 ft 490 kts 239°
2026-04-27 13:30 4.35052 74.57983 24386 ft 486 kts 240°
2026-04-27 13:30 4.33369 74.55054 23653 ft 483 kts 240°
2026-04-27 13:31 4.31700 74.52148 22888 ft 479 kts 240°
2026-04-27 13:31 4.30045 74.49265 22163 ft 473 kts 240°
2026-04-27 13:31 4.28414 74.46424 21430 ft 468 kts 240°
2026-04-27 13:31 4.26801 74.43616 20791 ft 462 kts 240°
2026-04-27 13:32 4.25208 74.40843 20211 ft 458 kts 240°
2026-04-27 13:32 4.23621 74.38080 19496 ft 456 kts 240°
2026-04-27 13:32 4.22044 74.35336 18786 ft 452 kts 240°
2026-04-27 13:32 4.20500 74.32648 18085 ft 449 kts 240°
2026-04-27 13:33 4.18946 74.29942 17310 ft 445 kts 240°
2026-04-27 13:33 4.17415 74.27279 16631 ft 439 kts 239°
2026-04-27 13:33 4.15897 74.24636 15924 ft 434 kts 239°
2026-04-27 13:33 4.14400 74.22031 15188 ft 430 kts 239°
2026-04-27 13:34 4.12918 74.19452 14513 ft 425 kts 239°
2026-04-27 13:34 4.11451 74.16899 13827 ft 421 kts 239°
2026-04-27 13:34 4.09998 74.14371 13119 ft 416 kts 239°
2026-04-27 13:34 4.08582 74.11908 12444 ft 411 kts 239°
2026-04-27 13:35 4.07167 74.09449 11755 ft 406 kts 240°
2026-04-27 13:35 4.05763 74.07008 11094 ft 401 kts 240°
2026-04-27 13:35 4.04385 74.04614 10692 ft 390 kts 240°
2026-04-27 13:35 4.03059 74.02307 10518 ft 374 kts 240°
2026-04-27 13:36 4.01787 74.00097 10373 ft 358 kts 240°
2026-04-27 13:36 4.00570 73.97980 10222 ft 344 kts 240°
2026-04-27 13:36 3.99404 73.95953 10106 ft 329 kts 240°
2026-04-27 13:36 3.98297 73.94028 9997 ft 316 kts 240°
2026-04-27 13:37 3.97216 73.92149 9736 ft 309 kts 240°
2026-04-27 13:37 3.96150 73.90297 9342 ft 306 kts 240°
2026-04-27 13:37 3.95253 73.88387 8961 ft 302 kts 253°
2026-04-27 13:37 3.94898 73.86336 8592 ft 297 kts 269°
2026-04-27 13:38 3.94909 73.84280 8206 ft 294 kts 271°
2026-04-27 13:38 3.94919 73.82239 7839 ft 292 kts 271°
2026-04-27 13:38 3.94921 73.80240 7476 ft 290 kts 271°
2026-04-27 13:38 3.94921 73.78230 7110 ft 288 kts 271°
2026-04-27 13:39 3.94920 73.76233 6740 ft 286 kts 271°
2026-04-27 13:39 3.94919 73.74243 6372 ft 285 kts 271°
2026-04-27 13:39 3.94919 73.72267 5996 ft 283 kts 271°
2026-04-27 13:39 3.94920 73.70310 5666 ft 279 kts 271°
2026-04-27 13:40 3.94919 73.68397 5549 ft 270 kts 271°
2026-04-27 13:40 3.94918 73.66561 5527 ft 256 kts 271°
2026-04-27 13:40 3.94918 73.64837 5529 ft 240 kts 270°
2026-04-27 13:40 3.94917 73.63226 5431 ft 231 kts 271°
2026-04-27 13:41 3.94913 73.61629 5163 ft 229 kts 270°
2026-04-27 13:41 3.94912 73.60031 4871 ft 229 kts 270°
2026-04-27 13:41 3.94909 73.58446 4619 ft 227 kts 270°
2026-04-27 13:41 3.94905 73.56883 4443 ft 219 kts 271°
2026-04-27 13:42 3.94903 73.55391 4349 ft 208 kts 272°
2026-04-27 13:42 3.95326 73.54093 4232 ft 195 kts 314°
2026-04-27 13:42 3.96508 73.53360 4050 ft 205 kts 343°
2026-04-27 13:42 3.97910 73.53137 3803 ft 204 kts 356°
2026-04-27 13:43 3.99302 73.53114 3557 ft 202 kts
2026-04-27 13:43 4.00701 73.53121 3299 ft 200 kts 359°
2026-04-27 13:43 4.02088 73.53118 3050 ft 199 kts 359°
2026-04-27 13:43 4.03469 73.53118 2797 ft 198 kts 358°
2026-04-27 13:44 4.04856 73.53116 2552 ft 200 kts 358°
2026-04-27 13:44 4.06221 73.53114 2312 ft 194 kts 359°
2026-04-27 13:44 4.07555 73.53113 2041 ft 189 kts 358°
2026-04-27 13:44 4.08855 73.53112 1787 ft 184 kts 358°
2026-04-27 13:45 4.10103 73.53111 1558 ft 180 kts 358°
2026-04-27 13:45 4.11336 73.53110 1328 ft 174 kts 357°
2026-04-27 13:45 4.12533 73.53108 1108 ft 170 kts 358°
2026-04-27 13:45 4.13694 73.53108 882 ft 164 kts 358°
2026-04-27 13:46 4.14778 73.53107 719 ft 146 kts 358°
2026-04-27 13:46 4.15751 73.53108 528 ft 138 kts 357°
2026-04-27 13:46 4.16719 73.53101 366 ft 138 kts 358°
2026-04-27 13:46 4.17664 73.53103 196 ft 137 kts 357°
2026-04-27 13:47 4.18617 73.53105 47 ft 137 kts 357°
2026-04-27 13:47 4.19498 73.53097 10 ft 106 kts 359°
2026-04-27 13:47 4.20035 73.53095 8 ft 58 kts
2026-04-27 13:47 4.20328 73.53095 10 ft 26 kts 346°
2026-04-27 13:48 4.20368 73.52974 10 ft 15 kts 275°
2026-04-27 13:48 4.20322 73.52891 10 ft 16 kts 182°
2026-04-27 13:48 4.20204 73.52896 10 ft 18 kts 176°
2026-04-27 13:48 4.20068 73.52901 10 ft 21 kts 179°
2026-04-27 13:49 4.19916 73.52901 10 ft 23 kts 180°
2026-04-27 13:49 4.19752 73.52903 10 ft 25 kts 178°
2026-04-27 13:49 4.19574 73.52907 10 ft 26 kts 179°
2026-04-27 13:49 4.19385 73.52909 10 ft 28 kts 179°
2026-04-27 13:50 4.19200 73.52916 11 ft 24 kts 177°
2026-04-27 13:50 4.19071 73.52920 11 ft 11 kts 181°
2026-04-27 13:50 4.19048 73.52895 11 ft 5 kts 259°
2026-04-27 13:50 4.19052 73.52859 11 ft 5 kts 313°
2026-04-27 13:51 4.19063 73.52820 11 ft 8 kts 268°
2026-04-27 13:51 4.19066 73.52779 10 ft 0 kts 268°